Theta_e
334 335 334 335 334 337 336 331 328 327 326 324 323 322 319 318 319 320 326 328 332 332 328 330 330 331 332 331 333 332 334 336 336 335 334 333 331 331 329 330 330 335 336
335 335 335 334 333 335 335 333 330 327 325 324 323 321 320 319 318 318 322 326 328 330 331 331 334 335 334 331 331 330 332 335 335 334 332 331 330 329 328 328 328 332 334
332 334 334 332 331 333 332 331 330 327 325 325 323 322 322 321 319 319 321 324 324 328 332 331 333 332 335 336 331 331 331 332 334 333 330 329 328 329 327 328 329 330 329
317 332 331 331 330 330 329 329 328 326 324 324 323 323 324 324 320 321 323 323 323 324 327 330 333 333 332 331 331 331 331 333 333 332 329 328 329 328 328 330 329 327 327
315 332 330 331 329 328 328 328 326 326 324 323 323 324 325 324 324 324 324 322 320 318 318 326 329 329 331 331 330 329 330 330 331 331 330 327 329 328 328 330 329 329 328
312 332 329 330 329 326 326 326 326 325 324 323 323 323 323 324 322 321 321 320 318 315 316 316 324 326 327 329 330 329 328 329 329 328 328 331 332 331 329 329 327 326 330
308 328 328 329 328 324 324 324 325 324 323 324 318 315 314 318 319 318 319 317 315 313 314 314 321 325 326 328 329 329 330 328 328 326 326 326 328 328 331 330 328 327 329
306 312 328 328 328 324 322 323 323 323 323 321 317 314 310 312 313 316 316 315 313 312 313 314 318 322 323 321 321 327 331 329 329 326 325 325 325 323 325 329 328 327 327
302 312 327 327 327 326 321 322 323 321 319 320 319 316 308 308 310 311 312 312 312 312 311 313 315 319 321 322 323 323 325 325 326 327 324 324 326 323 324 325 325 323 325
300 309 325 327 327 326 322 321 323 322 320 318 318 317 310 309 309 304 309 310 311 310 309 310 313 317 318 323 320 319 320 324 324 328 326 324 326 324 324 325 324 323 323
301 310 324 327 326 325 323 321 321 321 320 319 317 309 308 308 305 302 302 304 308 309 311 309 311 314 315 321 321 319 320 324 325 327 326 324 324 324 324 323 323 323 322
300 311 326 326 326 325 322 321 321 320 319 320 318 312 310 309 303 301 300 304 305 303 308 308 309 314 316 318 317 316 318 323 326 325 325 325 326 324 324 325 324 322 322
297 308 314 325 325 325 323 321 320 320 319 318 316 314 312 311 307 303 303 300 304 301 304 306 308 311 315 315 314 311 315 320 324 327 327 327 327 326 324 323 323 323 322
293 299 307 316 324 325 323 321 320 320 319 318 316 313 310 310 310 306 304 303 299 303 302 303 306 309 313 315 312 310 314 317 320 324 327 329 326 325 324 323 324 323 322
294 298 305 310 323 324 323 321 320 319 319 317 315 313 311 310 310 309 308 308 304 301 303 302 304 309 310 311 312 311 311 313 318 320 322 323 322 322 322 323 323 323 323
291 294 299 307 317 323 323 321 319 319 318 317 316 312 311 310 310 309 308 308 305 303 300 304 305 305 310 312 311 312 311 309 314 318 319 318 318 318 319 320 321 321 321
290 293 298 304 308 321 322 320 318 318 317 316 315 313 312 310 310 309 308 308 306 304 300 301 305 306 308 310 310 310 310 311 311 314 318 317 317 316 316 317 318 319 320
290 293 297 301 305 320 321 319 318 318 316 316 315 312 312 311 310 309 309 308 307 307 303 300 302 304 305 310 310 308 309 312 310 311 315 316 316 316 316 315 315 316 316
290 294 297 300 303 316 320 320 318 318 317 316 315 313 313 311 310 310 309 308 308 308 305 303 302 303 304 309 306 308 307 307 308 308 312 314 315 315 315 315 314 313 312
289 292 295 299 303 309 319 319 318 317 317 316 316 314 314 312 311 311 309 309 309 308 307 304 302 304 307 305 310 308 306 306 307 308 308 310 312 312 314 314 313 310 310
287 288 290 296 300 300 305 317 318 317 316 315 315 314 314 312 308 311 311 310 309 308 307 306 302 302 305 306 308 309 308 308 306 308 307 307 306 307 310 311 310 308 309
284 285 286 289 290 294 297 299 311 316 315 315 313 314 314 305 306 307 308 308 310 308 307 307 307 306 307 308 309 308 308 305 305 307 309 308 308 307 309 309 310 309 309
283 283 283 285 285 289 294 296 297 312 315 315 314 314 313 313 308 311 308 307 307 308 309 310 308 308 308 310 310 308 308 308 308 305 310 307 306 308 310 310 308 308 309
281 281 281 283 284 286 292 294 297 304 314 315 315 315 314 313 311 311 311 310 311 310 310 311 312 312 313 313 312 312 310 309 304 303 309 306 304 307 310 309 307 308 308
279 280 280 281 282 283 291 292 292 294 300 311 316 316 315 314 309 307 311 310 310 311 308 307 308 308 308 309 312 310 307 306 303 302 307 305 302 305 304 308 308 306 307
278 279 279 280 283 282 289 290 290 289 290 294 307 317 307 314 308 306 311 311 309 310 311 309 309 306 307 309 306 313 311 307 305 303 303 306 301 302 300 302 309 309 307
Wind_Speed
7 6 7 8 8 9 8 7 7 8 7 9 8 9 6 5 5 2 4 12 9 10 9 11 15 12 11 9 13 11 12 13 15 17 18 17 17 15 16 15 14 16 17
8 8 9 9 9 9 9 9 9 8 7 9 9 6 7 6 5 4 4 7 7 7 10 10 10 10 16 14 11 10 10 12 13 16 16 15 15 14 14 14 14 14 17
13 11 11 10 10 10 11 9 10 6 8 7 9 8 7 6 5 6 4 5 6 6 5 11 7 11 14 15 15 12 11 11 12 15 15 14 14 13 13 12 15 15 15
16 13 9 13 11 10 9 10 10 10 9 10 6 7 7 6 5 5 4 6 4 2 4 7 8 12 11 13 14 11 11 14 12 15 15 14 13 13 13 13 14 13 14
17 14 10 8 14 9 11 11 11 11 10 9 9 7 6 6 7 4 4 7 7 4 3 4 5 4 8 9 12 11 10 11 12 13 14 12 12 14 13 14 15 13 15
13 14 11 14 10 9 9 10 12 10 11 10 10 7 4 3 4 4 5 5 6 5 3 4 3 2 5 9 8 13 11 11 10 11 10 10 15 13 15 15 14 12 12
16 16 12 14 12 15 16 15 12 15 10 11 9 6 4 4 4 3 5 5 6 4 3 4 3 2 2 10 9 9 13 13 11 11 9 7 10 13 13 16 14 13 10
13 14 17 16 18 13 14 14 15 12 9 12 8 7 5 2 2 2 4 5 6 5 4 4 4 3 2 3 5 9 11 12 12 13 11 11 9 10 8 11 14 13 12
15 14 19 17 19 16 12 16 17 18 13 12 13 9 5 5 6 1 2 3 5 4 4 4 4 5 3 4 5 6 8 8 9 13 13 12 12 11 10 6 10 11 12
15 15 20 19 19 16 17 17 16 16 14 15 11 5 2 9 7 4 1 1 2 6 5 3 4 4 4 3 4 7 7 9 13 12 12 11 11 11 11 11 10 10 11
15 13 13 24 21 17 18 20 19 18 13 15 12 5 3 4 5 5 4 3 0 2 3 4 5 5 6 5 4 5 9 9 11 14 12 12 11 12 11 9 13 10 10
10 15 8 20 20 20 20 17 17 19 15 15 11 9 8 7 6 5 3 5 7 3 3 4 4 4 4 5 6 8 10 10 10 11 14 13 12 12 12 12 11 11 11
8 8 6 14 17 19 20 19 16 17 16 15 16 11 7 6 6 4 4 3 4 2 3 4 4 4 4 4 5 8 11 11 11 12 12 16 14 11 11 12 12 11 10
10 12 7 11 6 19 21 18 14 14 15 14 18 12 8 7 10 5 6 7 3 3 2 3 3 5 5 5 6 11 6 11 11 10 13 12 13 12 12 12 12 11 11
10 11 9 7 8 11 18 19 14 16 16 14 15 13 11 8 9 8 7 9 7 9 10 5 4 8 6 6 7 6 6 9 11 11 8 8 11 9 10 12 11 11 10
11 10 10 9 8 14 15 19 15 17 17 14 12 15 13 10 10 9 9 8 4 5 5 5 6 4 9 7 8 9 8 10 13 11 10 8 11 11 9 8 11 11 11
11 9 9 9 6 7 16 17 16 17 18 17 15 15 16 15 11 10 8 8 7 4 4 2 3 4 8 10 7 6 6 7 6 13 12 10 11 11 11 10 10 10 11
9 8 6 7 4 11 11 13 18 16 19 19 18 16 17 12 15 13 11 11 10 7 5 5 3 3 4 12 10 9 7 7 6 10 13 12 13 12 12 12 12 11 11
6 6 4 7 1 11 15 17 18 18 19 20 19 18 19 17 16 12 12 11 9 8 5 4 4 2 2 7 5 5 6 5 6 9 14 14 14 13 13 13 13 12 12
8 8 6 6 6 12 14 16 20 18 18 17 18 18 19 19 20 17 14 14 11 10 8 4 4 4 5 4 8 10 6 4 7 5 7 9 12 14 14 15 14 14 14
11 11 11 10 15 15 7 13 16 18 17 17 17 16 17 18 21 20 14 14 14 12 9 9 4 3 6 5 13 6 9 7 5 5 6 6 5 5 8 11 10 14 15
13 13 13 14 13 11 22 21 3 15 14 15 15 14 15 14 16 20 22 21 19 16 14 11 10 8 10 10 9 8 8 5 8 7 8 7 7 8 8 8 13 15 17
12 13 14 12 11 13 27 25 19 6 15 16 15 14 14 11 15 17 20 20 20 22 22 16 14 11 10 11 11 11 12 11 8 5 11 8 6 9 8 8 15 18 19
12 11 12 12 10 11 28 28 17 4 6 17 16 16 15 15 16 18 16 17 18 18 18 13 15 15 12 12 15 14 14 10 3 2 7 8 5 8 7 7 15 19 20
11 11 11 14 14 13 30 31 20 11 8 7 16 17 17 16 18 22 19 19 18 16 14 16 15 14 15 18 16 9 8 10 6 4 8 5 4 4 4 8 8 19 20
9 7 10 12 20 13 24 28 23 9 10 9 11 15 19 20 21 26 21 19 19 18 15 13 10 8 14 17 21 16 12 12 7 6 5 8 4 5 3 5 8 8 9
Wind_Direction
202 179 188 176 170 164 157 148 141 142 138 133 124 130 138 124 118 104 114 118 136 123 146 151 141 142 135 121 105 105 95 98 107 102 96 93 90 89 82 83 86 78 80
185 181 190 179 175 171 157 159 152 151 144 144 133 130 139 131 128 128 121 118 126 159 150 162 154 148 141 138 127 121 117 102 107 107 103 98 96 96 90 86 88 74 84
230 180 193 179 177 172 152 155 154 151 142 144 145 137 135 134 136 139 127 130 136 155 171 158 160 141 118 125 113 126 134 117 105 114 109 103 103 102 91 95 98 89 87
285 185 195 182 170 158 168 161 159 157 151 143 148 146 135 139 135 145 156 122 127 132 150 107 123 129 132 138 122 120 105 119 114 122 109 114 114 103 105 100 97 97 95
291 195 183 194 153 167 170 169 165 161 153 147 147 145 136 153 154 140 153 132 133 140 143 129 126 103 131 124 141 138 123 108 110 113 113 130 119 118 112 97 100 90 96
296 194 178 175 162 177 181 166 166 161 154 148 143 139 116 134 134 145 143 128 127 139 159 109 122 83 146 147 142 143 144 128 112 109 117 110 117 137 123 114 107 105 83
267 230 179 170 165 175 188 168 166 153 148 148 127 105 64 73 109 143 148 138 137 143 170 146 128 93 169 155 153 147 151 153 142 128 137 132 126 113 106 124 117 116 107
269 290 184 184 176 178 178 168 172 155 151 162 156 138 141 114 89 158 155 158 163 146 176 164 150 141 141 125 151 168 156 147 151 146 144 148 137 144 124 111 115 104 93
290 259 206 186 183 167 183 182 178 167 165 179 169 158 151 175 129 168 173 169 163 148 178 169 177 155 182 145 163 144 157 146 168 159 156 153 161 150 157 133 121 126 116
272 241 230 176 182 175 183 189 185 175 165 175 176 157 157 135 156 159 154 172 203 159 184 197 176 174 184 166 137 154 163 173 180 159 156 152 154 164 156 147 135 145 130
270 265 252 185 179 175 184 186 187 185 171 171 182 146 147 100 113 134 162 155 261 190 179 202 184 175 183 166 162 166 172 185 180 174 172 172 172 167 156 152 148 145 147
291 265 241 191 180 175 179 186 189 188 172 173 183 171 172 156 165 131 113 157 175 203 182 204 198 184 167 166 158 174 189 190 195 180 173 171 178 166 166 163 156 154 152
288 292 4 199 180 176 182 182 187 190 181 178 181 182 180 163 135 123 122 144 164 174 177 210 205 193 173 172 172 184 193 192 211 199 202 177 178 173 173 173 169 166 164
289 301 324 311 181 196 179 179 185 190 187 186 186 177 168 165 153 147 139 145 113 174 199 177 184 198 194 185 186 189 196 202 208 221 213 210 174 173 180 185 177 178 179
285 288 292 308 231 201 184 177 186 193 190 184 189 172 169 164 159 158 152 165 142 188 207 209 174 197 187 176 190 183 194 206 215 213 221 207 163 171 185 184 180 182 187
279 286 287 270 274 192 182 178 187 188 192 186 186 177 173 166 165 161 164 172 151 147 187 175 204 172 183 186 187 185 195 192 208 211 212 196 178 179 190 194 192 192 197
273 264 258 260 292 194 187 178 184 179 195 183 186 183 180 172 171 169 167 168 166 142 135 200 161 172 176 181 179 188 187 195 204 209 206 194 189 191 192 197 199 200 198
279 277 255 257 277 210 192 183 187 182 191 192 187 179 185 173 178 176 174 179 178 172 137 157 170 163 176 193 181 176 191 203 198 209 208 200 199 199 199 200 203 204 206
304 296 317 275 292 250 191 192 194 188 193 192 191 183 185 178 184 182 182 182 177 174 162 142 174 165 155 176 144 182 185 192 201 204 209 210 207 203 205 206 209 206 210
0 8 347 305 14 295 183 192 197 184 185 193 195 192 193 185 187 184 187 187 181 174 179 154 170 164 184 165 185 189 187 185 208 193 208 213 210 208 207 212 209 208 212
19 16 15 14 34 29 13 208 190 184 182 188 194 196 201 194 193 187 181 185 180 180 179 192 169 162 182 170 197 174 194 190 203 182 200 217 199 196 225 223 221 213 217
24 23 23 32 32 20 20 17 247 178 182 188 192 193 202 191 189 184 187 183 181 182 187 190 197 197 193 196 182 182 177 176 213 184 198 221 178 213 219 214 209 210 217
24 29 27 25 36 8 14 12 356 225 176 189 191 187 199 198 191 196 196 183 186 190 187 188 195 199 187 190 174 175 192 198 207 175 190 212 181 217 215 216 206 210 217
15 27 30 25 31 11 16 13 3 34 211 186 189 195 197 194 190 195 194 202 198 200 198 192 199 199 195 180 182 189 188 190 87 140 170 203 161 214 207 217 209 212 216
15 20 14 21 24 16 17 17 20 12 351 274 200 194 195 194 193 194 197 202 202 203 204 200 197 192 186 174 181 160 174 176 200 197 197 158 186 206 187 219 215 215 219
15 17 28 22 17 13 15 21 22 7 10 339 313 204 202 204 193 190 202 199 205 204 191 198 210 200 191 188 179 183 177 187 186 199 199 186 149 152 227 212 211 210 215